HISPASAT 36W-1 (41942 NORAD) Tracking and Keplerian Element Data

This shows tracking and keplerian element data for the satellite.

Feedback or suggestion? Click here.




ElementValue
Catalog41942
NameHISPASAT 36W-1
Epoch Orbit556
Epoch Day201.27220056
Epoch Year2018
RAAN226.7169
Inclination0.0166
Eccentricity9.72E-05
Argument of Perigee253.9416
Mean Anonmoly239.3339
Mean Motion1.00271595
Decay Rate-2.61E-06
L11 41942U 17006A 18201.27220056 -.00000261 00000-0 00000+0 0 9999
L22 41942 0.0166 226.7169 0000972 253.9416 239.3339 1.00271595 5564

Live tracking and technical data element details for HISPASAT 36W-1 (NORAD 41942). HISPASAT 36W-1 can be tracked NOW for your location showing map with azimuth and elevation plus other details from your city location.

Track the satellite on the map from your city or location and see movement details for azimuth, elevation, latitude, longitude, range, height, and movement on the map or in text.







IsCatalogInMostPopularTable: catalog: 41942, numindb: 69
Update: records affected: 1



GetName: 41942 HISPASAT 36W-1

Hit Count: updated at: Mon, 23 Jul 2018 07:48:28 GMT